Weather History for Wray Municipal Airport, CO

Change the Weather History Date:

Tuesday, December 10, 2013

  Actual Average (KHEQ) Record (KHEQ)
Temperature  
Mean Temperature 25 °F -  
Max Temperature 45 °F 47 °F 62 °F (2014)
Min Temperature 5 °F 16 °F 8 °F (2013)
Degree Days  
Heating Degree Days 40    
Moisture  
Dew Point 10 °F    
Average Humidity 56    
Maximum Humidity 86    
Minimum Humidity 26    
Precipitation  
Precipitation 0.00 in - - ()
Sea Level Pressure  
Sea Level Pressure 30.08 in    
Wind  
Wind Speed 8 mph (West)    
Max Wind Speed 25 mph    
Max Gust Speed 37 mph    
Visibility 10 miles    
Events      
Averages and records for this station are not official NWS values.
T = Trace of Precipitation, MM = Missing Value Source: NWS Daily Summary

Daily Weather History Graph

Daily Weather History Graph

Search for Another Location

Airport:

Trip Planner

Search our weather history database for the weather conditions in past years. The results will help you decide how hot, cold, wet, or windy it might be!

Date:

Astronomy

Dec. 10, 2013 Rise Set
Actual Time 7:00 AM MST 4:23 PM MST
Civil Twilight 6:29 AM MST 4:53 PM MST
Nautical Twilight 5:55 AM MST 5:27 PM MST
Astronomical Twilight 5:23 AM MST 6:00 PM MST
Moon 12:26 PM MST (12/10) 12:20 AM MST (12/10)
Length of Visible Light 10h 23m
Length of Day
9h 22m
Waxing Gibbous, 62% of the Moon is Illuminated
Dec 10
Waxing Gibbous
Dec 17
Full
Dec 25
Last Quarter
Jan 1
New
Jan 7
First Quarter

Hourly Weather History & Observations

Time (MST) Temp. Windchill Dew Point Humidity Pressure Visibility Wind Dir Wind Speed Gust Speed Precip Events Conditions
12:15 AM 5.9 °F -7.0 °F -0.4 °F 75% 30.12 in 10.0 mi WSW 8.1 mph - N/A   Clear
12:35 AM 6.3 °F -2.6 °F -0.2 °F 75% 30.11 in 10.0 mi SW 4.6 mph - N/A   Clear
12:55 AM 6.3 °F -6.5 °F -0.4 °F 74% 30.10 in 10.0 mi WSW 8.1 mph - N/A   Clear
1:15 AM 5.2 °F -3.8 °F -1.5 °F 74% 30.11 in 10.0 mi West 4.6 mph - N/A   Clear
1:35 AM 7.0 °F -5.7 °F -0.2 °F 72% 30.12 in 10.0 mi SW 8.1 mph - N/A   Clear
1:55 AM 8.6 °F 0.1 °F 0.5 °F 70% 30.11 in 10.0 mi SW 4.6 mph - N/A   Clear
2:15 AM 6.4 °F -2.4 °F -1.5 °F 70% 30.11 in 10.0 mi SSE 4.6 mph - N/A   Clear
2:35 AM 8.6 °F 0.1 °F 1.0 °F 71% 30.12 in 10.0 mi South 4.6 mph - N/A   Clear
2:55 AM 9.0 °F -0.9 °F 0.9 °F 70% 30.12 in 10.0 mi WSW 5.8 mph - N/A   Clear
3:55 AM 8.2 °F -1.8 °F 0.1 °F 70% 30.11 in 10.0 mi West 5.8 mph - N/A   Clear
4:15 AM 7.3 °F 0.5 °F -0.4 °F 71% 30.12 in 10.0 mi West 3.5 mph - N/A   Clear
4:35 AM 7.5 °F -3.9 °F 0.3 °F 72% 30.11 in 10.0 mi WSW 6.9 mph - N/A   Clear
4:55 AM 8.6 °F -3.7 °F -0.0 °F 68% 30.11 in 10.0 mi WSW 8.1 mph - N/A   Clear
5:15 AM 8.4 °F -5.7 °F 0.1 °F 69% 30.12 in 10.0 mi WSW 10.4 mph - N/A   Clear
5:35 AM 8.4 °F -2.8 °F 0.1 °F 69% 30.12 in 10.0 mi WSW 6.9 mph - N/A   Clear
5:55 AM 9.3 °F -4.6 °F 0.9 °F 69% 30.11 in 10.0 mi WSW 10.4 mph - N/A   Clear
6:15 AM 8.1 °F -4.3 °F 0.1 °F 70% 30.11 in 10.0 mi WSW 8.1 mph - N/A   Clear
6:35 AM 8.8 °F -2.4 °F 1.0 °F 71% 30.10 in 10.0 mi WSW 6.9 mph - N/A   Clear
6:55 AM 9.7 °F -1.3 °F 1.2 °F 69% 30.09 in 10.0 mi WSW 6.9 mph - N/A   Clear
7:15 AM 10.6 °F -3.8 °F 1.8 °F 68% 30.07 in 10.0 mi WSW 11.5 mph - N/A   Clear
7:35 AM 12.2 °F 2.9 °F 2.3 °F 65% 30.07 in 10.0 mi WSW 5.8 mph - N/A   Clear
7:55 AM 14.0 °F 6.5 °F 3.0 °F 62% 30.05 in 10.0 mi WSW 4.6 mph - N/A   Clear
8:15 AM 16.0 °F 10.4 °F 3.9 °F 59% 30.06 in 10.0 mi SW 3.5 mph - N/A   Clear
8:35 AM 21.2 °F 13.6 °F 4.1 °F 48% 30.05 in 10.0 mi SW 5.8 mph - N/A   Clear
8:55 AM 25.3 °F - 4.8 °F 42% 30.05 in 10.0 mi Calm Calm - N/A   Clear
9:15 AM 31.6 °F 24.4 °F 4.6 °F 32% 30.05 in 10.0 mi SSW 8.1 mph - N/A   Clear
9:35 AM 32.2 °F 26.7 °F 7.3 °F 35% 30.05 in 10.0 mi WSW 5.8 mph - N/A   Clear
9:55 AM 33.4 °F 29.1 °F 6.1 °F 32% 30.05 in 10.0 mi South 4.6 mph - N/A   Clear
10:15 AM 34.2 °F 31.2 °F 6.8 °F 32% 30.03 in 10.0 mi SE 3.5 mph - N/A   Clear
10:35 AM 35.8 °F 30.1 °F 7.7 °F 31% 30.02 in 10.0 mi SSW 6.9 mph - N/A   Clear
10:55 AM 36.3 °F 28.9 °F 9.3 °F 33% 29.99 in 10.0 mi South 10.4 mph 18.4 mph N/A   Clear
11:15 AM 39.2 °F 31.2 °F 12.6 °F 34% 29.97 in 10.0 mi South 13.8 mph 20.7 mph N/A   Clear
11:35 AM 39.9 °F 32.9 °F 14.4 °F 35% 29.96 in 10.0 mi SSW 11.5 mph 18.4 mph N/A   Clear
11:55 AM 38.7 °F 33.6 °F 14.2 °F 37% 29.94 in 10.0 mi SW 6.9 mph - N/A   Clear
12:15 PM 41.0 °F 35.8 °F 15.3 °F 35% 29.93 in 10.0 mi SSW 8.1 mph - N/A   Clear
12:35 PM 42.8 °F 41.1 °F 16.2 °F 34% 29.94 in 10.0 mi South 3.5 mph - N/A   Clear
12:55 PM 43.3 °F 38.6 °F 17.1 °F 35% 29.94 in 10.0 mi SSW 8.1 mph - N/A   Scattered Clouds
1:15 PM 45.0 °F 41.2 °F 13.8 °F 29% 29.94 in 10.0 mi WSW 6.9 mph - N/A   Scattered Clouds
1:35 PM 45.5 °F 41.8 °F 14.0 °F 28% 29.94 in 10.0 mi West 6.9 mph - N/A   Mostly Cloudy
1:55 PM 43.9 °F 38.3 °F 14.9 °F 31% 29.96 in 10.0 mi NNW 10.4 mph - N/A   Overcast
2:15 PM 45.7 °F 40.6 °F 12.4 °F 26% 29.96 in 10.0 mi NNW 10.4 mph - N/A   Overcast
2:35 PM 43.3 °F 36.8 °F 16.3 °F 34% 29.96 in 10.0 mi North 12.7 mph - N/A   Overcast
2:55 PM 41.0 °F 36.4 °F 14.7 °F 34% 29.98 in 10.0 mi North 6.9 mph - N/A   Overcast
3:15 PM 40.1 °F 33.6 °F 15.3 °F 36% 29.99 in 10.0 mi North 10.4 mph - N/A   Overcast
3:35 PM 39.2 °F 33.0 °F 16.3 °F 40% 30.00 in 10.0 mi North 9.2 mph - N/A   Overcast
3:55 PM 38.3 °F 32.5 °F 19.4 °F 47% 30.00 in 10.0 mi NNW 8.1 mph - N/A   Overcast
4:15 PM 38.3 °F 30.1 °F 19.9 °F 48% 30.01 in 10.0 mi NNW 13.8 mph 19.6 mph N/A   Overcast
4:35 PM 38.3 °F 28.1 °F 19.6 °F 47% 30.02 in 10.0 mi NNW 20.7 mph 28.8 mph N/A   Overcast
4:55 PM 38.3 °F 28.1 °F 20.3 °F 48% 30.03 in 10.0 mi NNW 20.7 mph 25.3 mph N/A   Overcast
5:15 PM 38.3 °F 29.0 °F 20.5 °F 49% 30.04 in 10.0 mi NNW 17.3 mph 29.9 mph N/A   Overcast
5:35 PM 38.7 °F 27.5 °F 19.4 °F 46% 30.05 in 10.0 mi NNW 25.3 mph 36.8 mph N/A   Overcast
5:55 PM 37.2 °F 29.1 °F 20.3 °F 50% 30.06 in 10.0 mi North 12.7 mph 26.5 mph N/A   Overcast
6:15 PM 34.9 °F 26.2 °F 20.3 °F 55% 30.07 in 10.0 mi North 12.7 mph 18.4 mph N/A   Overcast
6:35 PM 33.8 °F 26.4 °F 19.2 °F 55% 30.09 in 10.0 mi North 9.2 mph - N/A   Mostly Cloudy
6:55 PM 32.7 °F 25.0 °F 19.2 °F 58% 30.10 in 10.0 mi North 9.2 mph - N/A   Overcast
7:15 PM 32.0 °F 21.6 °F 18.0 °F 56% 30.11 in 10.0 mi North 15.0 mph 21.9 mph N/A   Overcast
7:35 PM 31.8 °F 21.8 °F 17.1 °F 55% 30.12 in 10.0 mi NNW 13.8 mph 20.7 mph N/A   Overcast
7:55 PM 29.8 °F 21.5 °F 16.7 °F 58% 30.14 in 10.0 mi North 9.2 mph - N/A   Overcast
8:15 PM 26.6 °F 20.0 °F 16.2 °F 65% 30.16 in 10.0 mi NNW 5.8 mph - N/A   Overcast
8:35 PM 24.3 °F 19.9 °F 15.6 °F 70% 30.17 in 10.0 mi WNW 3.5 mph - N/A   Scattered Clouds
8:55 PM 24.8 °F 20.5 °F 16.0 °F 69% 30.19 in 10.0 mi NW 3.5 mph - N/A   Clear
9:15 PM 23.5 °F 13.7 °F 17.2 °F 77% 30.19 in 10.0 mi NNW 9.2 mph - N/A   Clear
9:35 PM 25.7 °F 13.1 °F 18.3 °F 74% 30.20 in 10.0 mi NNW 16.1 mph - N/A   Clear
9:55 PM 26.4 °F 15.0 °F 18.5 °F 72% 30.21 in 10.0 mi NNW 13.8 mph 23.0 mph N/A   Clear
10:15 PM 25.5 °F 12.9 °F 18.5 °F 75% 30.22 in 10.0 mi NNW 16.1 mph 20.7 mph N/A   Clear
10:35 PM 24.8 °F 14.0 °F 18.5 °F 77% 30.24 in 10.0 mi North 11.5 mph 17.3 mph N/A   Clear
10:55 PM 24.6 °F 14.4 °F 18.9 °F 79% 30.25 in 10.0 mi North 10.4 mph - N/A   Clear
11:15 PM 23.9 °F 14.2 °F 19.2 °F 82% 30.26 in 10.0 mi North 9.2 mph - N/A   Scattered Clouds
11:35 PM 22.6 °F 13.4 °F 18.7 °F 85% 30.28 in 10.0 mi North 8.1 mph - N/A   Scattered Clouds
11:55 PM 21.2 °F 12.6 °F 17.6 °F 86% 30.28 in 10.0 mi North 6.9 mph - N/A   Clear